Find STARLINK-37909

NORAD ID: 799500996 Int'l Des: 2026-135W Constellation: starlink operational

Current View

Loading 3D Globe...

About STARLINK-37909

STARLINK-37909 (NORAD 799500996) is a starlink constellation satellite launched Jun 8, 2026

About STARLINK-37909

Description loading...

Upcoming Passes

Passes for default location (London). Set your location on the main map for personalized predictions.

Altitude History

Loading altitude history...

Two-Line Element Set

1 99999C 2026135W 26166.84354167 .00484390 00000-0 755050-4 0 1663
2 99999 97.2800 193.6266 0010618 263.8611 265.4679 16.03715126 11
Epoch: Jun 15, 2026 • Age: 9 hours